User: anonymous   Login
Location: Prairie State College
(41.5244°N, 87.6382°W)
Time: 04:46:14
(UTC-05:00)
Language:

ARGOS Delta rocket - Orbit

View from above orbital plane
View from above orbital plane
View from above satellite
View from above satellite

Ground track
Ground track

The orbit data is extracted from the following two-line orbital elements,

1 25637U 99008D   17114.86115269 +.00000137 +00000-0 +40728-4 0  9997
2 25637 096.4870 027.4043 0144437 090.6898 312.3961 14.46509400957618
Epoch (UTC): 24 April 2017 20:40:03
Eccentricity: 0.0144437
inclination: 96.4870°
perigee height: 634 km
apogee height: 840 km
right ascension of ascending node: 27.4043°
argument of perigee: 90.6898°
revolutions per day: 14.46509400
mean anomaly at epoch: 312.3961°
orbit number at epoch: 95761

The dashed part of the orbit path shows where the satellite is in the earth's shadow,  

DLR